FW1370 Weather Reports


Display with metric or nautical units.
time (UTC)temp
F
wind
direction
speed
MPH
gust
MPH
rain 1hr
in
rain 24hr
in
rain mn
in
humidity
%
barometer
mb
20220520030831 60 115 0.0 0.0 0.00 0.49 0.48 91 1010.5
20220520030323 60 115 0.0 0.0 0.00 0.49 0.48 91 1010.6
20220520025835 60 115 0.0 0.0 0.00 0.49 0.48 91 1010.5
20220520025327 60 103 0.0 0.0 0.00 0.49 0.48 90 1010.6
20220520024817 60 103 0.0 0.0 0.00 0.49 0.48 90 1010.5
20220520024329 60 103 0.0 0.0 0.00 0.49 0.48 90 1010.5
20220520023821 61 103 0.0 0.0 0.00 0.49 0.48 89 1010.4
20220520023333 61 103 0.0 0.0 0.00 0.49 0.48 89 1010.4
20220520022828 61 103 0.0 0.0 0.00 0.49 0.48 88 1010.4
20220520022318 61 103 0.0 0.0 0.00 0.49 0.48 88 1010.5
20220520021828 62 103 0.0 0.0 0.00 0.49 0.48 88 1010.4
20220520021320 62 103 0.0 0.0 0.00 0.49 0.48 87 1010.3
20220520020831 62 103 0.0 0.0 0.00 0.49 0.48 87 1010.2
20220520020322 62 103 0.0 0.0 0.00 0.49 0.48 87 1010.2
20220520015834 62 103 0.0 0.0 0.00 0.49 0.48 87 1010.1
20220520015324 62 103 0.0 0.0 0.00 0.49 0.48 86 1009.9
20220520014820 63 103 0.0 0.0 0.00 0.49 0.48 86 1009.8
20220520014331 63 103 0.0 0.0 0.00 0.49 0.48 85 1009.8
20220520013824 64 103 0.0 0.0 0.00 0.49 0.48 84 1009.7
20220520013335 64 103 0.0 0.0 0.00 0.49 0.48 84 1009.6
20220520012826 64 103 0.0 0.0 0.00 0.49 0.48 83 1009.5
20220520012317 65 103 0.0 0.0 0.00 0.49 0.48 83 1009.3
20220520011828 65 103 0.0 0.0 0.00 0.49 0.48 82 1009.4
20220520011320 66 103 0.0 0.0 0.00 0.49 0.48 81 1009.2
20220520010832 66 103 0.0 0.0 0.00 0.49 0.48 80 1009.1
20220520010328 67 103 0.0 0.0 0.00 0.49 0.48 80 1009.0
20220520005819 67 102 0.0 0.0 0.00 0.49 0.48 80 1008.9
20220520005328 68 103 0.0 0.0 0.00 0.49 0.48 78 1008.7
20220520004821 68 103 0.0 0.0 0.00 0.49 0.48 79 1008.8
20220520004331 69 103 0.0 1.0 0.00 0.49 0.48 77 1008.8
20220520003823 70 103 0.0 1.0 0.00 0.49 0.48 75 1008.6
20220520003334 70 102 0.0 2.0 0.00 0.49 0.48 74 1008.6
20220520002824 71 103 0.0 2.0 0.00 0.49 0.48 70 1008.4
20220520002319 72 101 1.0 2.0 0.00 0.49 0.48 68 1008.3
20220520001831 73 121 1.0 1.0 0.00 0.49 0.48 66 1008.3
20220520001324 74 122 0.0 1.0 0.00 0.49 0.48 65 1008.2
20220520000835 75 258 0.0 1.0 0.00 0.49 0.48 63 1008.1
20220520000327 75 258 1.0 3.0 0.00 0.49 0.48 61 1007.9
20220519235817 76 259 1.0 3.0 0.00 0.49 0.48 60 1007.9
20220519235328 76 278 2.0 3.0 0.00 0.49 0.48 59 1007.8
20220519234820 77 283 2.0 5.0 0.00 0.49 0.48 60 1007.7
20220519234335 77 278 3.0 7.0 0.00 0.49 0.48 59 1007.6